Location: Newark
(45.0500°N, 41.9667°E)
Time: 21:05:10
(UTC+00:00)

Starlink (trailer) - Pass Details

Date: 30 July 2019
Orbit: 549 x 551 km, 53.0° (Epoch: 23 August)

Event Time Altitude Azimuth Distance (km) Brightness Sun altitude
Rises 17:11:53 0° 184° (S) 2,701 6.9 -5.4°
Reaches altitude 10° 17:15:02 10° 159° (SSE) 1,814 5.8 -5.9°
Maximum altitude 17:17:08 14° 128° (SE) 1,589 5.3 -6.2°
Drops below altitude 10° 17:19:15 10° 97° (E) 1,821 5.7 -6.5°
Sets 17:22:26 0° 71° (ENE) 2,720 6.8 -6.9°
